Wind_Speed
16 16 17 17 19 19 19 19 17 16 15 15 16 15 15 16 16 17 17 17 18 19 19 18 18 17 16 15 14 13 12 11 12 11 11 11 12 12 11 10 9 7 5
16 16 16 16 17 17 16 16 15 13 12 13 13 14 14 15 15 15 15 14 16 17 17 16 16 16 15 14 14 13 12 11 12 12 12 12 12 12 11 9 8 8 4
13 14 13 13 13 13 12 12 12 10 10 11 11 11 10 10 11 12 12 13 14 15 15 15 14 14 13 13 12 12 11 10 10 10 10 10 11 12 12 9 7 5 4
10 11 11 11 10 11 11 10 11 11 11 11 11 9 7 7 8 9 11 13 14 14 14 14 13 12 11 12 12 11 10 9 9 8 8 9 9 10 10 10 8 5 3
6 7 8 8 8 9 9 9 10 10 11 11 10 7 7 7 8 9 10 12 15 16 15 15 14 12 10 10 11 11 9 8 7 7 8 8 7 8 9 9 8 7 4
4 5 6 6 7 7 7 7 8 8 9 9 9 8 7 9 11 12 11 13 15 16 17 16 16 14 12 10 10 10 10 8 6 5 6 7 8 8 9 10 10 9 8
1 2 3 5 5 6 6 6 6 7 8 8 9 10 11 11 13 14 13 13 16 17 18 18 17 16 14 12 10 9 9 9 7 5 5 6 8 10 10 11 11 10 9
5 4 4 4 3 3 2 2 3 4 5 7 9 10 10 9 10 11 11 12 15 17 17 17 16 14 14 13 11 9 8 8 7 6 7 8 7 8 9 11 10 8 7
8 8 7 6 5 5 3 3 4 2 2 5 7 7 7 7 6 8 10 11 12 14 16 17 18 16 14 13 11 9 8 9 8 7 8 10 9 8 9 11 12 11 10
10 10 10 9 9 8 7 6 6 3 1 3 7 8 8 6 5 9 12 11 11 13 14 16 17 17 16 15 13 11 8 10 9 8 9 10 11 12 12 13 13 12 12
11 11 12 13 11 9 8 8 8 6 7 7 9 11 12 9 7 10 13 13 13 14 14 16 16 16 16 17 16 14 11 10 10 9 9 11 12 14 16 16 15 14 13
12 13 14 14 12 11 10 10 11 11 12 14 15 15 14 12 11 12 14 16 17 17 17 18 20 18 16 18 19 17 15 13 13 11 10 12 14 17 17 18 17 15 13
14 14 14 15 15 15 15 15 14 15 16 18 18 16 13 11 11 15 19 19 21 22 20 20 22 23 19 17 19 18 17 15 14 14 13 14 15 18 18 18 18 16 14
14 13 13 14 14 14 15 16 16 15 17 17 16 14 12 12 14 19 22 24 26 25 24 24 25 25 23 20 18 17 17 17 15 16 16 15 16 18 18 18 18 16 15
12 13 12 12 12 12 12 14 14 15 16 14 14 14 14 14 17 21 24 25 26 26 25 26 28 26 24 22 20 18 18 20 16 16 16 16 16 18 19 17 18 17 15
18 20 19 16 16 16 17 17 16 16 16 16 15 15 15 16 18 21 23 26 27 25 26 26 25 23 23 22 21 21 21 22 19 17 18 19 18 19 20 20 18 15 14
29 26 25 20 18 17 18 20 22 21 21 20 18 18 19 20 21 24 26 29 30 29 28 27 22 23 24 22 23 23 24 23 22 19 20 21 21 21 22 23 21 16 14
38 35 30 25 22 21 21 23 25 25 26 25 23 23 24 25 26 28 29 33 34 34 34 31 28 28 26 23 24 26 27 25 22 22 24 24 23 24 25 24 22 20 17
40 39 32 29 28 28 28 28 26 27 29 30 29 29 29 30 32 35 35 36 37 38 37 35 33 31 29 25 25 27 26 27 24 23 26 27 26 25 27 26 24 23 21
37 37 31 34 35 33 33 31 30 31 33 34 34 33 33 33 34 36 38 40 41 40 37 35 35 32 29 27 25 26 27 25 25 26 27 29 29 29 28 26 24 23 23
42 43 38 39 39 38 37 34 34 37 38 39 39 38 37 37 38 40 42 44 46 45 39 36 36 35 30 29 28 28 30 29 25 28 31 31 31 32 30 27 25 24 22
50 48 37 36 39 40 39 35 36 42 42 43 43 43 43 41 41 43 47 47 48 49 46 41 38 37 34 32 30 29 31 33 33 35 37 37 34 31 28 26 25 24 24
36 33 36 41 44 41 39 39 41 44 44 45 45 45 43 41 41 43 45 46 46 48 49 48 45 41 40 39 35 33 34 34 36 38 38 39 37 32 27 24 25 26 25
41 40 41 45 48 50 47 44 44 44 45 44 43 42 41 42 44 45 45 45 45 46 48 50 50 46 44 42 38 36 36 38 39 38 37 35 35 31 30 28 28 27 25
37 38 39 38 40 44 43 42 40 39 40 40 40 41 42 43 43 44 44 45 44 45 46 48 48 46 43 41 39 40 39 40 40 39 37 33 34 34 33 32 34 32 28
39 34 34 30 32 35 36 37 37 37 38 38 38 40 42 43 43 43 44 45 44 44 44 45 45 45 41 38 39 40 41 40 38 40 41 39 36 36 36 34 34 34 30
Wind_Direction
86 87 94 96 95 92 88 81 73 70 70 68 64 57 50 47 45 42 38 33 38 40 41 41 44 44 44 49 53 53 49 45 40 37 36 39 44 46 45 56 66 76 135
90 88 89 93 94 93 86 73 64 63 61 58 58 54 49 53 51 43 35 30 33 32 33 37 42 40 40 40 44 48 49 50 49 44 36 33 36 41 44 46 48 55 66
94 92 88 87 89 88 85 75 65 58 53 48 46 52 51 57 55 49 35 24 26 27 22 23 30 35 35 33 35 41 48 49 49 45 33 28 23 24 29 31 30 33 39
100 101 99 96 91 86 78 74 65 52 45 41 39 48 51 48 41 31 24 16 13 14 12 11 12 20 28 29 28 32 38 46 41 39 32 31 22 17 17 19 15 15 2
103 106 109 106 100 95 87 77 66 54 47 43 44 52 43 26 11 1 358 360 359 358 1 4 3 4 10 18 21 23 25 33 34 20 20 23 20 13 12 13 18 25 19
96 120 124 117 110 102 91 77 67 53 44 40 38 40 29 13 360 358 355 352 353 350 351 353 354 354 350 356 9 12 14 16 29 12 2 360 359 358 3 16 21 25 28
358 159 157 139 128 116 101 82 65 51 39 38 35 34 29 19 12 10 5 351 344 343 344 345 347 345 343 343 351 1 3 8 10 7 349 344 351 353 1 14 25 27 28
286 259 226 202 190 163 117 56 8 21 35 41 37 40 40 42 41 33 20 360 338 328 327 330 336 336 334 337 340 348 349 358 356 349 326 330 351 346 347 345 353 2 7
283 276 266 257 260 259 252 275 295 314 86 51 26 23 26 23 20 17 6 1 344 325 318 318 321 324 321 323 326 330 338 343 343 341 322 330 337 338 337 331 333 331 327
287 284 274 262 263 265 272 279 269 240 234 351 345 344 342 340 330 335 335 335 333 329 323 317 312 312 309 305 310 316 322 329 331 324 315 317 325 328 328 327 330 325 318
284 289 283 272 273 276 278 277 266 263 274 294 312 320 326 327 324 334 327 324 325 322 320 315 311 308 304 298 300 307 308 313 317 309 306 307 313 317 320 321 323 322 326
285 284 284 276 275 277 276 274 275 281 286 293 302 307 305 303 315 338 335 331 333 328 325 316 307 302 297 292 292 297 302 305 301 292 291 297 305 304 310 316 312 316 317
275 275 274 270 271 273 274 274 275 280 287 290 295 303 301 298 312 330 331 335 336 332 332 326 312 302 297 287 283 289 294 298 297 288 281 289 294 293 296 304 303 301 303
256 250 252 259 262 269 274 277 277 284 291 294 297 304 300 302 318 323 327 330 331 329 327 328 323 308 295 284 277 278 281 292 295 286 276 281 289 291 291 299 302 299 300
252 251 256 278 277 272 277 284 293 296 295 303 307 307 305 313 318 318 318 321 323 325 321 319 318 311 301 288 276 276 281 284 287 283 276 275 278 283 285 295 300 302 303
257 258 261 271 276 281 290 296 296 293 297 301 299 294 300 305 304 302 308 315 320 321 320 317 317 318 304 291 276 266 266 273 280 284 278 275 274 278 285 291 291 294 301
259 253 255 261 273 281 285 288 289 291 291 294 295 295 303 307 305 306 309 314 316 315 315 313 308 316 312 291 282 275 267 262 269 277 278 276 274 273 275 281 285 286 292
254 248 245 253 265 274 277 279 283 287 291 293 292 291 298 305 306 306 307 311 312 310 309 307 304 301 307 290 278 280 273 263 266 274 280 279 275 274 276 278 281 284 288
260 247 241 249 257 263 269 275 281 286 289 292 294 295 298 302 303 304 305 307 309 310 308 305 301 299 298 294 278 276 271 262 264 272 281 282 278 275 277 277 275 278 284
253 243 252 252 253 258 266 274 284 286 286 288 289 290 293 294 295 297 300 304 306 307 304 300 299 297 295 291 283 275 268 268 262 268 276 281 282 279 278 276 270 273 278
262 254 259 259 253 255 264 271 279 281 283 285 287 288 288 289 291 293 295 298 300 301 300 295 293 293 293 289 284 276 266 265 271 270 273 278 281 280 276 270 265 266 273
269 254 253 252 251 256 262 266 276 279 280 282 285 287 287 288 288 289 291 293 294 295 294 292 290 286 286 285 281 276 271 265 269 274 274 275 275 274 274 267 259 263 271
274 266 256 259 261 261 264 270 271 273 278 282 284 284 285 285 285 286 287 289 290 290 290 291 291 286 282 281 278 273 270 269 270 271 271 277 274 269 267 255 257 264 269
274 284 273 258 256 259 260 264 267 271 276 278 280 281 283 285 287 289 290 290 289 288 288 288 288 285 281 278 273 267 268 272 273 272 266 271 266 263 264 255 256 261 266
264 271 272 269 263 264 264 265 266 267 271 275 278 281 284 286 287 289 290 290 289 286 284 283 283 281 278 274 269 266 262 265 271 270 259 261 261 258 263 262 256 254 262
264 261 267 265 259 257 261 265 269 271 272 275 279 282 284 286 288 290 291 290 289 288 286 284 281 281 279 273 267 268 267 267 268 268 257 257 259 259 260 258 254 253 261
Height
5923 5922 5922 5923 5922 5923 5924 5924 5925 5925 5925 5924 5924 5925 5924 5924 5922 5920 5919 5917 5916 5914 5914 5913 5911 5909 5908 5907 5906 5905 5905 5904 5903 5902 5901 5900 5898 5898 5897 5897 5896 5896 5896
5926 5925 5925 5926 5926 5927 5927 5927 5927 5927 5926 5925 5925 5926 5926 5925 5923 5922 5920 5918 5917 5916 5915 5914 5913 5911 5910 5909 5907 5907 5906 5905 5904 5902 5901 5900 5900 5899 5898 5898 5897 5896 5896
5928 5927 5928 5929 5929 5929 5929 5929 5930 5929 5928 5927 5927 5926 5926 5925 5924 5923 5921 5920 5918 5917 5915 5914 5913 5912 5911 5910 5908 5908 5907 5906 5905 5904 5903 5902 5901 5900 5899 5899 5898 5897 5896
5930 5929 5930 5930 5931 5931 5931 5931 5931 5932 5931 5929 5929 5928 5927 5927 5925 5924 5923 5922 5920 5918 5917 5915 5914 5913 5911 5910 5909 5909 5908 5907 5906 5904 5904 5903 5901 5900 5899 5899 5898 5897 5896
5931 5931 5931 5931 5932 5932 5933 5933 5934 5933 5932 5931 5930 5929 5929 5928 5927 5926 5925 5923 5922 5920 5917 5916 5915 5914 5912 5910 5910 5909 5908 5908 5907 5906 5904 5903 5902 5900 5899 5898 5897 5896 5895
5932 5932 5932 5932 5933 5933 5934 5935 5935 5934 5933 5932 5931 5930 5929 5929 5928 5927 5926 5925 5923 5921 5919 5917 5916 5914 5912 5910 5909 5909 5908 5907 5906 5906 5904 5903 5901 5900 5898 5897 5897 5896 5894
5934 5934 5934 5933 5933 5934 5935 5935 5935 5934 5934 5933 5932 5930 5929 5929 5928 5928 5927 5925 5923 5921 5920 5918 5916 5914 5912 5910 5909 5909 5908 5907 5907 5905 5904 5902 5901 5900 5899 5898 5897 5895 5894
5934 5934 5934 5934 5934 5934 5935 5935 5934 5934 5933 5932 5932 5930 5928 5927 5926 5926 5925 5924 5922 5920 5919 5917 5915 5913 5911 5910 5909 5909 5908 5907 5905 5904 5903 5902 5901 5899 5898 5898 5896 5895 5893
5934 5934 5934 5935 5935 5935 5935 5934 5933 5932 5932 5931 5931 5930 5928 5926 5925 5924 5923 5922 5920 5918 5917 5915 5914 5912 5910 5909 5908 5907 5907 5906 5905 5904 5902 5901 5899 5898 5897 5896 5894 5893 5892
5934 5934 5934 5934 5934 5933 5933 5932 5931 5930 5930 5929 5929 5928 5927 5925 5923 5921 5921 5919 5918 5916 5914 5913 5911 5910 5909 5907 5905 5905 5904 5904 5904 5903 5901 5900 5898 5897 5895 5893 5891 5890 5889
5933 5934 5933 5933 5932 5932 5931 5931 5930 5929 5928 5926 5926 5925 5925 5923 5921 5919 5918 5917 5915 5913 5911 5909 5907 5906 5906 5904 5903 5902 5902 5901 5901 5900 5899 5899 5898 5896 5893 5891 5889 5888 5887
5932 5932 5932 5932 5931 5930 5929 5928 5928 5926 5925 5924 5922 5922 5921 5920 5918 5916 5915 5915 5912 5910 5909 5908 5905 5902 5902 5900 5899 5898 5899 5899 5898 5897 5896 5896 5896 5894 5891 5890 5888 5886 5884
5930 5930 5930 5929 5928 5928 5927 5926 5925 5923 5922 5921 5920 5919 5918 5917 5914 5912 5911 5911 5909 5907 5905 5904 5902 5899 5898 5896 5895 5895 5895 5896 5896 5894 5893 5894 5894 5892 5889 5889 5886 5884 5882
5923 5924 5925 5925 5924 5923 5923 5922 5921 5919 5919 5918 5917 5916 5916 5914 5911 5909 5907 5906 5904 5902 5901 5899 5897 5895 5894 5892 5890 5890 5890 5890 5891 5891 5890 5890 5890 5888 5887 5886 5883 5881 5879
5922 5922 5922 5923 5922 5920 5919 5918 5917 5916 5915 5914 5914 5913 5913 5911 5909 5907 5905 5904 5901 5899 5897 5895 5892 5891 5890 5888 5886 5885 5885 5885 5885 5886 5886 5886 5886 5886 5885 5882 5879 5878 5876
5919 5919 5917 5917 5917 5915 5914 5913 5913 5912 5911 5910 5911 5911 5909 5908 5906 5905 5904 5900 5897 5895 5893 5891 5888 5886 5885 5884 5882 5881 5880 5880 5881 5882 5881 5880 5881 5881 5880 5878 5875 5873 5872
5913 5914 5912 5911 5910 5910 5909 5907 5907 5907 5907 5906 5906 5906 5904 5902 5901 5899 5897 5896 5894 5891 5889 5887 5886 5884 5882 5880 5878 5877 5875 5874 5875 5877 5876 5875 5875 5876 5875 5873 5872 5870 5869
5905 5905 5904 5903 5905 5905 5903 5901 5899 5899 5899 5898 5897 5898 5899 5897 5895 5893 5891 5889 5888 5886 5884 5882 5880 5879 5878 5876 5874 5872 5869 5868 5869 5869 5870 5870 5870 5870 5869 5868 5868 5867 5865
5898 5896 5893 5895 5897 5897 5897 5895 5893 5893 5893 5891 5890 5890 5890 5889 5888 5886 5884 5883 5881 5879 5877 5875 5874 5873 5872 5870 5868 5866 5864 5864 5864 5863 5864 5864 5864 5863 5862 5862 5862 5861 5860
5890 5890 5885 5886 5887 5888 5888 5888 5887 5886 5885 5885 5885 5884 5884 5883 5881 5879 5877 5874 5873 5871 5869 5868 5866 5865 5864 5863 5862 5861 5859 5859 5860 5858 5858 5857 5857 5856 5855 5855 5855 5856 5855
5883 5881 5879 5877 5879 5879 5880 5880 5880 5879 5878 5878 5879 5877 5877 5876 5874 5872 5870 5867 5865 5863 5862 5860 5859 5858 5857 5856 5855 5853 5852 5852 5853 5852 5851 5851 5851 5849 5848 5848 5849 5849 5850
5868 5865 5866 5870 5870 5870 5869 5869 5872 5872 5871 5870 5870 5869 5868 5867 5866 5864 5863 5860 5857 5854 5852 5851 5851 5851 5849 5847 5846 5846 5845 5845 5845 5844 5844 5844 5844 5844 5841 5841 5841 5842 5843
5853 5854 5857 5857 5857 5859 5859 5861 5864 5864 5864 5863 5863 5861 5860 5858 5857 5855 5854 5852 5849 5846 5843 5840 5840 5841 5840 5838 5837 5837 5836 5836 5835 5835 5835 5835 5835 5835 5834 5835 5835 5836 5836
5837 5840 5842 5844 5847 5849 5852 5853 5852 5854 5854 5854 5853 5852 5851 5849 5847 5845 5844 5842 5840 5837 5834 5830 5828 5828 5829 5828 5827 5826 5827 5826 5827 5827 5827 5826 5826 5827 5828 5829 5828 5828 5829
5828 5832 5833 5836 5840 5842 5843 5843 5843 5843 5843 5843 5843 5843 5842 5840 5838 5836 5834 5832 5829 5827 5824 5822 5819 5817 5817 5817 5817 5817 5817 5817 5818 5818 5819 5818 5820 5820 5821 5821 5820 5822 5822
5820 5822 5825 5826 5829 5832 5832 5832 5832 5833 5833 5833 5833 5833 5833 5831 5829 5827 5824 5821 5818 5816 5814 5811 5809 5806 5805 5806 5806 5806 5807 5809 5809 5808 5810 5811 5811 5812 5813 5813 5812 5813 5813